Regional Weather Roundup
Issued by NWS Sioux Falls, SD

Home | Current Version | Previous Version | Graphics & Text | Print | Product List | Glossary On
Versions: 1 2 3 4 5 6 7 8 9 10 11 12 13 14 15 16 17 18 19 20 21 22 23 24 25 26 27 28 29 30 31 32 33 34 35 36 37 38 39 40 41 42 43 44 45 46 47 48 49 50
000
ASUS43 KFSD 212110
RWRFSD

WEATHER ROUNDUP FOR SE SOUTH DAKOTA/SW MINNESOTA/NW IOWA
NATIONAL WEATHER SERVICE SIOUX FALLS SD
400 PM CDT SAT APR 21 2018

NOTE: "FAIR" INDICATES FEW OR NO CLOUDS BELOW 12,000 FEET WITH NO
SIGNIFICANT WEATHER AND OR OBSTRUCTIONS TO VISIBILITY.


SDZ038>040-050-052>070-212200-
SOUTHEAST SOUTH DAKOTA

CITY           SKY/WX    TMP DP  RH WIND       PRES   REMARKS
BROOKINGS      CLOUDY    50  37  61 SE8       30.32F
CHAMBERLAIN    CLOUDY    48  44  83 E6        30.28F
HURON          CLOUDY    47  36  65 CALM      30.30F
MADISON        CLOUDY    46  45  93 E6        30.31F
MITCHELL       CLOUDY    43  37  79 NW5       30.30F
SIOUX FALLS    CLOUDY    50  36  58 E9        30.30F
WINNER         CLOUDY    47  39  74 E9        30.26F
YANKTON        CLOUDY    51  33  50 E8        30.28F
$$

MNZ071-072-080-081-089-090-097-098-212200-
SOUTHWEST MINNESOTA

CITY           SKY/WX    TMP DP  RH WIND       PRES   REMARKS
FAIRMONT       CLOUDY    44  33  65 NE6       30.35F
JACKSON        CLOUDY    41  34  75 NE3       30.34F
LUVERNE        CLOUDY    50  36  57 E7        30.32F
MARSHALL       CLOUDY    47  30  51 SE8       30.34F
MONTEVIDEO     SUNNY     55  36  47 SW9       30.34F
PIPESTONE      MOSUNNY  N/A N/A N/A E6        30.32F
REDWOOD FALLS  CLOUDY    52  35  52 SE7       30.34F
TRACY          CLOUDY    45  34  64 SE3       30.34F
WINDOM         CLOUDY    45  25  45 NE5       30.34F
WORTHINGTON    CLOUDY    45  35  68 E6        30.33F
$$

IAZ001>003-012>014-020>022-031-032-NEZ013-014-SDZ071-212200-
NORTHWEST IOWA

CITY           SKY/WX    TMP DP  RH WIND       PRES   REMARKS
CHEROKEE       CLOUDY    52  38  59 E12       30.29F
DENISON        CLOUDY    55  27  33 E9        30.27F
ESTHERVILLE    CLOUDY    40  33  76 NE9       30.33F
LE MARS        CLOUDY    55  34  44 E12G18    30.28F
ORANGE CITY    MOSUNNY   57  34  41 E10       30.29F
SHELDON        CLOUDY    54  34  47 E12G20    30.28F
SIOUX CITY     CLOUDY    55  30  38 E10       30.26F
SPENCER        CLOUDY    47  35  63 E12       30.31F
STORM LAKE     PTSUNNY   50  41  71 NE15      30.28F
$$

ABBREVIATIONS USED IN REMARKS
   TC - TEMPERATURE IN CELSIUS
  WCI - WIND CHILL INDEX
   HX - HEAT INDEX
  VSB - VISIBILITY




USA.gov is the U.S. government's official web portal to all federal, state and local government web resources and services.